Durango, CO

11:09 PM MDT on July 20, 2017 (GMT -0600)
Durango-La Plata County

Weather History for KDRO - June, 2013

Change the Weather History Date:

Saturday, June 15, 2013

  Actual Average Record
Temperature  
Mean Temperature 64 °F 62 °F  
Max Temperature 85 °F 82 °F 94 °F (1989)
Min Temperature 42 °F 42 °F 30 °F (2001)
Degree Days  
Heating Degree Days 1 4  
Month to date heating degree days 26 84  
Since 1 June heating degree days 26 84  
Since 1 July heating degree days 7132 7092  
Cooling Degree Days 0 1  
Month to date cooling degree days 21 8  
Year to date cooling degree days 21 9  
Since 1 June cooling degree days 21 8  
Growing Degree Days 14 (Base 50)    
Moisture  
Dew Point 31 °F    
Average Humidity 36    
Maximum Humidity 59    
Minimum Humidity 12    
Precipitation  
Precipitation T in 0.02 in 0.05 in (1982)
Month to date precipitation T 0.20  
Year to date precipitation 3.75 5.63  
Sea Level Pressure  
Sea Level Pressure 29.98 in    
Wind  
Wind Speed 7 mph (NW)    
Max Wind Speed 38 mph    
Max Gust Speed 54 mph    
Visibility 10 miles    
Events Rain , Thunderstorm    
T = Trace of Precipitation, MM = Missing Value Source: NWS Daily Summary

Daily Weather History Graph

Daily Weather History Graph

Search for Another Location

Airport or City:

Trip Planner

Search our weather history database for the weather conditions in past years. The results will help you decide how hot, cold, wet, or windy it might be!

Date:

Astronomy

Jun. 15, 2013 Rise Set
Actual Time 5:50 AM MDT 8:32 PM MDT
Civil Twilight 5:19 AM MDT 9:03 PM MDT
Nautical Twilight 4:40 AM MDT 9:42 PM MDT
Astronomical Twilight 3:57 AM MDT 10:25 PM MDT
Moon 12:19 PM MDT (6/15) 12:17 AM MDT (6/15)
Length of Visible Light 15h 44m
Length of Day
14h 42m
Waxing Crescent, 40% of the Moon is Illuminated
Jun 15
Waxing Crescent
Jun 16
First Quarter
Jun 23
Full
Jun 29
Last Quarter
Jul 8
New

Hourly Weather History & Observations

Time (MDT) Temp. Dew Point Humidity Pressure Visibility Wind Dir Wind Speed Gust Speed Precip Events Conditions
12:53 AM 54.0 °F 27.0 °F 35% 29.83 in 10.0 mi Calm Calm - N/A   Clear
1:53 AM 52.0 °F 24.1 °F 34% 29.85 in 10.0 mi Calm Calm - N/A   Clear
2:53 AM 50.0 °F 24.1 °F 36% 29.85 in 10.0 mi North 4.6 mph - N/A   Clear
3:53 AM 46.9 °F 24.1 °F 41% 29.88 in 10.0 mi Variable 3.5 mph - N/A   Clear
4:53 AM 46.9 °F 23.0 °F 39% 29.90 in 10.0 mi North 3.5 mph - N/A   Clear
5:53 AM 46.0 °F 24.1 °F 42% 29.92 in 10.0 mi Calm Calm - N/A   Clear
6:53 AM 50.0 °F 26.1 °F 39% 29.94 in 10.0 mi SSW 3.5 mph - N/A   Clear
7:53 AM 57.9 °F 27.0 °F 31% 29.94 in 10.0 mi NNW 5.8 mph - N/A   Clear
8:53 AM 66.9 °F 34.0 °F 30% 29.92 in 10.0 mi Calm Calm - N/A   Clear
9:53 AM 72.0 °F 39.0 °F 30% 29.92 in 10.0 mi South 3.5 mph - N/A   Clear
10:53 AM 77.0 °F 30.9 °F 19% 29.93 in 10.0 mi Calm Calm - N/A   Clear
11:53 AM 80.1 °F 27.0 °F 14% 29.94 in 10.0 mi Variable 3.5 mph - N/A   Clear
12:53 PM 82.0 °F 25.0 °F 12% 29.92 in 10.0 mi WSW 9.2 mph - N/A   Clear
1:14 PM 80.6 °F 28.4 °F 15% 30.18 in 10.0 mi WNW 20.7 mph 29.9 mph N/A   Partly Cloudy
1:53 PM 81.0 °F 28.9 °F 15% 29.93 in 10.0 mi WNW 20.7 mph 28.8 mph N/A   Partly Cloudy
2:53 PM 81.0 °F 26.1 °F 13% 29.92 in 10.0 mi WNW 12.7 mph 31.1 mph N/A   Clear
3:53 PM 80.1 °F 26.1 °F 14% 29.92 in 10.0 mi West 18.4 mph 24.2 mph N/A   Scattered Clouds
4:14 PM 75.2 °F 30.2 °F 19% 30.17 in 10.0 mi WNW 28.8 mph 39.1 mph N/A Thunderstorm Mostly Cloudy
4:31 PM 75.2 °F 32.0 °F 21% 30.19 in 10.0 mi NW 18.4 mph 31.1 mph N/A   Partly Cloudy
4:53 PM 77.0 °F 33.1 °F 20% 29.97 in 10.0 mi NNW 12.7 mph 21.9 mph N/A   Partly Cloudy
5:53 PM 66.0 °F 42.1 °F 42% 30.08 in 9.0 mi West 31.1 mph 54.1 mph 0.00 in Rain Light Rain
6:00 PM 62.6 °F 44.6 °F 52% 30.25 in 7.0 mi West 26.5 mph 43.7 mph 0.00 in Rain Light Rain
6:53 PM 66.9 °F 37.0 °F 33% 30.09 in 10.0 mi West 15.0 mph 25.3 mph 0.00 in Rain Light Rain
7:53 PM 66.9 °F 37.0 °F 33% 30.00 in 10.0 mi Variable 4.6 mph 19.6 mph N/A   Mostly Cloudy
8:53 PM 63.0 °F 39.0 °F 41% 30.01 in 10.0 mi ENE 3.5 mph - N/A   Clear
9:53 PM 60.1 °F 39.0 °F 46% 30.02 in 10.0 mi NNE 4.6 mph - N/A   Clear
10:53 PM 55.9 °F 37.0 °F 49% 30.01 in 10.0 mi Calm Calm - N/A   Clear
11:53 PM 54.0 °F 39.0 °F 57% 30.03 in 10.0 mi Calm Calm - N/A   Clear